Location: Le Hiès Ruisseau
(43.3000°N, 0.4500°W)
Time: 03:25:24
(UTC+00:00)

Cosmos 2227 - Pass Details

Date: 28 January 2023
Orbit: 833 x 862 km, 71.0° (Epoch: 27 March)

Event Time Altitude Azimuth Distance (km) Brightness Sun altitude
Rises 19:13:29 0° 333° (NNW) 3,447 7.7 -22.9°
Reaches altitude 10° 19:15:57 10° 332° (NNW) 2,508 6.9 -23.3°
Maximum altitude 19:21:43 77° 248° (WSW) 888 4.3 -24.4°
Enters shadow 19:26:31 15° 164° (SSE) 2,144 6.1 -25.2°
